#timestamp,LO_Frequency,Hit,StdDev 
1569711615.0,286047002.3,N
1569711616.0,286047002.3,N
1569711635.8,286047001.9,N
1569711655.6,286047005.1,N
1569711675.5,286047005.1,N
1569711695.3,286047001.2,N
1569711715.1,286047004.5,N
1569711735.9,286047010.8,N
1569711755.7,286047004.8,N
1569711775.5,286046999.8,N
1569711795.4,286047007.8,N
1569711815.2,286047016.2,N
1569711835.1,286047009.3,N
1569711836.0,286047009.3,N
1569711855.8,286047005.1,N
1569711875.6,286047002.0,N
1569711895.5,286047009.7,N
1569711915.3,286047021.0,N
1569711935.1,286047023.0,N
1569711955.9,286047027.7,N
1569711975.7,286047032.7,N
1569711995.6,286047031.6,N
1569712015.4,286047033.2,N
1569712035.2,286047028.7,N
1569712055.1,286047034.2,N
1569712056.0,286047034.2,N
1569712075.8,286047027.9,N
1569712095.6,286047022.8,N
1569712115.5,286047019.1,N
1569712135.3,286047010.0,N
1569712155.2,286047008.7,N
1569712175.9,286047018.7,N
1569712195.7,286047023.2,N
1569712215.6,286047014.9,N
1569712235.4,286047011.8,N
1569712255.2,286047014.0,N
1569712275.1,286047016.8,N
1569712276.0,286047016.8,N
1569712295.8,286047018.6,N
1569712315.7,286047026.6,N
1569712335.5,286047029.3,Y
1569712355.3,286047016.8,P
1569712375.2,286047015.3,P
1569712395.0,286047001.7,N
1569712395.9,286047001.7,N
1569712415.7,286046997.3,N
1569712435.6,286046997.3,N
1569712455.4,286046999.5,N
1569712475.3,286046989.5,N
1569712495.1,286047000.7,N
1569712496.0,286047000.7,N
1569712515.8,286047013.9,N
1569712535.7,286047014.7,N
1569712555.5,286047015.0,N
1569712575.3,286047014.1,N
1569712595.2,286047015.7,N
1569712615.0,286047017.0,N
1569712615.9,286047017.0,N
1569712635.8,286047018.8,N
1569712655.6,286047021.3,N
1569712675.4,286047016.0,N
1569712695.3,286047013.7,N
1569712715.1,286047009.5,N
1569712735.8,286047006.9,N
1569712755.7,286047009.2,N
1569712775.5,286047010.3,N
1569712795.4,286047002.2,N
1569712815.2,286047002.0,N
1569712835.0,286047012.7,N
1569712835.9,286047012.7,N
1569712855.8,286047017.7,N
1569712875.6,286047016.9,N
1569712895.4,286047019.3,N
1569712915.3,286047019.1,N
1569712935.1,286047017.8,N
1569712955.9,286047014.1,N
1569712975.7,286047018.5,N
1569712995.5,286047011.4,N
1569713015.4,286047003.9,N
1569713035.2,286047000.5,N
1569713055.0,286046991.8,N
1569713056.0,286046991.8,N
1569713075.8,286046996.5,N
1569713095.6,286046998.1,N
1569713115.5,286047006.8,N
1569713135.3,286047011.2,N
1569713155.1,286047011.4,N
1569713175.9,286047016.4,N
1569713195.7,286047003.0,N
1569713215.6,286047005.8,N
1569713235.4,286047011.7,N
1569713255.2,286047014.2,N
1569713275.1,286047016.4,N
1569713306.0,286047021.9,E
1569713315.0,286047014.0,N
1569713315.9,286047014.0,P
1569713335.8,286047002.0,P
1569713355.6,286046996.9,N
1569713375.4,286046997.4,N
1569713395.3,286046992.4,N
1569713415.1,286046987.0,N
1569713435.9,286046989.7,N
1569713455.7,286046996.2,N
1569713475.5,286046993.6,N
1569713495.4,286046982.9,N
1569713515.2,286046982.2,N
1569713535.0,286046986.0,N
1569713535.9,286046986.0,N
1569713555.8,286046993.2,N
1569713575.6,286046992.1,N
1569713595.5,286046995.8,N
1569713615.3,286046996.5,N
1569713635.1,286046988.0,N
1569713655.9,286046984.1,N
1569713675.7,286046997.8,N
1569713695.5,286046998.2,N
1569713715.4,286046997.5,N
1569713735.2,286046991.4,N
1569713755.1,286047000.8,N
1569713756.0,286047000.8,N
1569713775.8,286047001.4,N
1569713795.6,286047002.1,N
1569713815.5,286046994.3,N
1569713835.3,286046984.2,N
1569713855.1,286046990.4,N
1569713875.9,286047003.2,N
1569713895.7,286046999.3,N
1569713915.6,286047004.9,N
1569713935.4,286047003.1,N
1569713955.2,286047010.1,N
1569713975.1,286047006.5,N
1569713976.0,286047006.5,N
1569713995.8,286047000.1,N
1569714015.6,286047002.1,N
1569714035.5,286047004.1,N
1569714055.3,286047004.9,N
1569714075.2,286047008.2,N
1569714095.9,286047006.1,N
1569714115.7,286047002.0,N
1569714135.6,286046993.1,N
1569714155.4,286046982.8,N
1569714175.2,286046990.4,N
1569714195.1,286046992.7,N
1569714196.0,286046992.7,N
1569714215.8,286046996.4,N
1569714235.7,286046997.0,N
1569714255.5,286046996.5,N
1569714275.3,286046994.0,N
1569714295.2,286046992.8,N
1569714315.0,286046986.5,N
1569714315.9,286046986.5,N
1569714335.7,286046977.1,Y
1569714355.6,286046980.9,P
1569714375.4,286046990.4,N
1569714395.3,286046995.7,N
1569714415.1,286046999.6,N
1569714416.0,286046999.6,N
1569714435.8,286047005.7,N
1569714455.7,286047006.2,N
1569714475.5,286047002.0,N
1569714495.3,286046997.0,N
1569714515.2,286046997.0,N
1569714535.0,286046996.2,N
1569714535.9,286046996.2,N
1569714555.8,286046999.3,N
1569714575.6,286047003.6,N
1569714595.4,286047006.8,N
1569714615.3,286047006.6,N
1569714635.1,286047003.6,N
1569714655.8,286047003.2,N
1569714675.7,286047000.7,N
1569714695.5,286046999.3,N
1569714715.4,286046997.6,N
1569714735.2,286046996.7,N
1569714755.0,286047000.7,N
1569714755.9,286047000.7,N
1569714775.8,286046996.3,N
1569714795.6,286046990.1,N
1569714815.4,286046990.4,N
1569714835.3,286046999.4,N
1569714855.1,286047004.1,N
1569714875.9,286047002.3,N
1569714895.7,286046993.2,N
1569714915.5,286046997.2,N
1569714935.4,286046990.9,N
1569714955.2,286046989.9,N
1569714975.0,286046995.0,N
1569714975.9,286046995.0,N
1569714995.8,286046992.3,N
1569715015.6,286046992.1,N
1569715035.4,286046993.1,N
1569715055.3,286046993.9,N
1569715075.1,286046991.4,N
1569715095.9,286046994.4,N
1569715115.7,286047002.7,N
1569715135.5,286047003.5,N
1569715155.4,286046992.3,N
1569715175.2,286046985.3,Y
1569715195.0,286046999.0,P
1569715196.0,286046999.0,N
